| time (UTC) | temp F | wind direction | speed MPH | gust MPH | rain 1hr in | rain 24hr in | rain mn in | humidity % | barometer mb |
| 20260504021524 | 65 | 288 | 0.0 | 0.0 | 0.00 | 0.00 | 0.00 | 64 | 1018.5 |
| 20260504020025 | 67 | 288 | 0.0 | 0.0 | 0.00 | 0.00 | 0.00 | 61 | 1018.6 |
| 20260504014528 | 68 | 288 | 0.0 | 0.0 | 0.00 | 0.00 | 0.00 | 56 | 1018.4 |
| 20260504013017 | 70 | 288 | 0.0 | 0.0 | 0.00 | 0.00 | 0.00 | 53 | 1018.4 |
| 20260504011518 | 71 | 288 | 0.0 | 0.0 | 0.00 | 0.00 | 0.00 | 49 | 1018.1 |
| 20260504010024 | 72 | 288 | 0.0 | 2.0 | 0.00 | 0.00 | 0.00 | 46 | 1018.1 |
| 20260504004529 | 73 | 287 | 0.0 | 2.0 | 0.00 | 0.00 | 0.00 | 44 | 1018.2 |
| 20260504003028 | 74 | 290 | 0.0 | 5.0 | 0.00 | 0.00 | 0.00 | 43 | 1018.1 |
| 20260504001527 | 74 | 325 | 2.0 | 7.0 | 0.00 | 0.00 | 0.00 | 42 | 1018.4 |
| 20260504000023 | 75 | 323 | 2.0 | 6.0 | 0.00 | 0.00 | 0.00 | 40 | 1018.4 |
| 20260503234528 | 76 | 11 | 1.0 | 5.0 | 0.00 | 0.00 | 0.00 | 39 | 1018.5 |
| 20260503233010 | 77 | 269 | 2.0 | 8.0 | 0.00 | 0.00 | 0.00 | 38 | 1018.6 |
| 20260503231520 | 77 | 4 | 2.0 | 7.0 | 0.00 | 0.00 | 0.00 | 35 | 1018.8 |
| 20260503230023 | 78 | 292 | 1.0 | 11.0 | 0.00 | 0.00 | 0.00 | 36 | 1018.8 |
| 20260503224524 | 78 | 1 | 3.0 | 8.0 | 0.00 | 0.00 | 0.00 | 33 | 1019.0 |
| 20260503223010 | 78 | 289 | 2.0 | 10.0 | 0.00 | 0.00 | 0.00 | 33 | 1018.9 |
| 20260503221514 | 78 | 313 | 2.0 | 5.0 | 0.00 | 0.00 | 0.00 | 33 | 1018.9 |
| 20260503220027 | 78 | 341 | 3.0 | 7.0 | 0.00 | 0.00 | 0.00 | 34 | 1019.1 |
| 20260503214521 | 78 | 308 | 3.0 | 8.0 | 0.00 | 0.00 | 0.00 | 34 | 1019.5 |
| 20260503213041 | 78 | 286 | 2.0 | 8.0 | 0.00 | 0.00 | 0.00 | 33 | 1019.8 |
| 20260503211518 | 78 | 321 | 3.0 | 8.0 | 0.00 | 0.00 | 0.00 | 33 | 1020.0 |
| 20260503210018 | 78 | 323 | 3.0 | 10.0 | 0.00 | 0.00 | 0.00 | 32 | 1020.5 |
| 20260503204526 | 78 | 241 | 2.0 | 7.0 | 0.00 | 0.00 | 0.00 | 34 | 1020.6 |
| 20260503203025 | 78 | 306 | 2.0 | 7.0 | 0.00 | 0.00 | 0.00 | 33 | 1021.0 |
| 20260503201527 | 78 | 286 | 3.0 | 8.0 | 0.00 | 0.00 | 0.00 | 35 | 1021.1 |
| 20260503200014 | 78 | 291 | 3.0 | 10.0 | 0.00 | 0.00 | 0.00 | 35 | 1021.4 |
| 20260503194524 | 78 | 344 | 5.0 | 10.0 | 0.00 | 0.00 | 0.00 | 38 | 1021.6 |
| 20260503193024 | 77 | 307 | 3.0 | 8.0 | 0.00 | 0.00 | 0.00 | 40 | 1021.8 |
| 20260503191524 | 77 | 352 | 3.0 | 6.0 | 0.00 | 0.00 | 0.00 | 36 | 1021.9 |
| 20260503190027 | 77 | 359 | 3.0 | 8.0 | 0.00 | 0.00 | 0.00 | 38 | 1022.3 |
| 20260503184517 | 76 | 58 | 3.0 | 6.0 | 0.00 | 0.00 | 0.00 | 39 | 1022.4 |
| 20260503183021 | 76 | 316 | 2.0 | 8.0 | 0.00 | 0.00 | 0.00 | 1022.7 | |
| 20260503181527 | 75 | 285 | 3.0 | 6.0 | 0.00 | 0.00 | 0.00 | 40 | 1023.0 |
| 20260503180032 | 75 | 347 | 3.0 | 9.0 | 0.00 | 0.00 | 0.00 | 40 | 1023.3 |
| 20260503174520 | 75 | 19 | 1.0 | 5.0 | 0.00 | 0.00 | 0.00 | 40 | 1023.6 |
| 20260503173020 | 74 | 285 | 2.0 | 8.0 | 0.00 | 0.00 | 0.00 | 41 | 1024.0 |
| 20260503171528 | 74 | 240 | 1.0 | 7.0 | 0.00 | 0.00 | 0.00 | 45 | 1024.1 |
| 20260503081539 | 49 | 197 | 0.0 | 0.0 | 0.00 | 0.00 | 0.00 | 91 | 1022.7 |
| 20260503071545 | 51 | 195 | 0.0 | 2.0 | 0.00 | 0.00 | 0.00 | 91 | 1023.6 |
| 20260503054534 | 52 | 195 | 0.0 | 0.0 | 0.00 | 0.00 | 0.00 | 89 | 1023.8 |
| 20260503053029 | 52 | 195 | 0.0 | 0.0 | 0.00 | 0.00 | 0.00 | 88 | 1023.7 |
| 20260503051525 | 53 | 195 | 0.0 | 0.0 | 0.00 | 0.00 | 0.00 | 87 | 1023.6 |
| 20260503050022 | 53 | 195 | 0.0 | 0.0 | 0.00 | 0.00 | 0.00 | 86 | 1023.5 |
| 20260503044526 | 53 | 195 | 0.0 | 0.0 | 0.00 | 0.00 | 0.00 | 86 | 1023.4 |
| 20260503043029 | 54 | 195 | 0.0 | 0.0 | 0.00 | 0.00 | 0.00 | 85 | 1023.5 |
| 20260503041527 | 54 | 195 | 0.0 | 2.0 | 0.00 | 0.00 | 0.00 | 84 | 1023.4 |
| 20260503040022 | 55 | 195 | 0.0 | 0.0 | 0.00 | 0.00 | 0.00 | 83 | 1023.6 |
| 20260503034524 | 56 | 195 | 0.0 | 0.0 | 0.00 | 0.00 | 0.00 | 82 | 1023.2 |
| 20260503033026 | 57 | 195 | 0.0 | 0.0 | 0.00 | 0.00 | 0.00 | 80 | 1023.1 |
| 20260503031535 | 57 | 195 | 0.0 | 2.0 | 0.00 | 0.00 | 0.00 | 78 | 1022.9 |
| 20260503030024 | 58 | 195 | 0.0 | 0.0 | 0.00 | 0.00 | 0.00 | 76 | 1022.7 |
| 20260503024521 | 59 | 195 | 0.0 | 0.0 | 0.00 | 0.00 | 0.00 | 73 | 1022.6 |
| 20260503023027 | 61 | 195 | 0.0 | 0.0 | 0.00 | 0.00 | 0.00 | 70 | 1022.3 |